www.pogodaiklimat.ru

Погода и климат >> Архив погоды >> Великобритания >> Инвербери


ПОГОДА в Инвербери

  • Прогноз погоды в Инвербери
  • Монитор погоды в Инвербери

АРХИВ ПОГОДЫ в Инвербери

Время (UTC), дата Ветер
(напр.,м/с)
 
Видим.   Явления Облачность Т
(С)
Тd
(С)
f
(%)
Тe
(С)
Тes
(С)
Комфортность P
(гПа)
Po
(гПа)
Тmin
(С)
Tmax
(С)
R
(мм)
R24
(мм)
S
(см)
07 12.08 СЗ 4 35 км н/о +9.4 +7.3 87 +6 +6 1010.8 994.5
08 12.08 СЗ 4 29 км н/о +10.1 +7.0 81 +8 +8 1011.3 995.1
09 12.08 СЗ 4 30 км н/о +11.2 +6.8 74 +9 +9 1011.6 995.4
10 12.08 З 3 40 км н/о +13.3 +7.9 70 +12 +12 1011.4 995.4
11 12.08 Ю 4 40 км н/о +12.7 +8.1 74 +11 +11 1011.5 995.4
12 12.08 Ю 5 35 км н/о +13.7 +9.6 76 +12 +12 1011.4 995.4
13 12.08 Ю 5 26 км н/о +12.9 +8.3 74 +11 +11 1011.5 995.5
14 12.08 Ю 6 25 км слаб. ливневой дождь н/о +12.4 +7.9 74 +10 +10 1011.6 995.6
15 12.08 Ю 3 27 км слаб. дождь н/о +12.0 +10.0 88 +10 +10 1011.7 995.6
16 12.08 Ю 6 35 км в посл. час дождь н/о +13.1 +9.2 77 +11 +11 1011.4 995.4
17 12.08 Ю 5 30 км н/о +12.6 +9.7 82 +10 +10 1011.5 995.5
18 12.08 Ю 5 40 км н/о +12.5 +9.4 81 +10 +10 1011.3 995.3 +14.6 0.4
19 12.08 Ю 4 40 км н/о +12.1 +9.8 86 +10 +10 1011.5 995.4
20 12.08 СЗ 3 35 км н/о +11.4 +9.4 88 +9 +9 1011.7 995.6
21 12.08 З 1 30 км н/о +10.6 +8.8 89 +10 +10 1011.9 995.7
22 12.08 СЗ 1 30 км н/о +10.4 +9.1 92 +10 +10 1011.9 995.7
23 12.08 СЗ 3 45 км н/о +9.5 +8.5 93 +7 +7 1012.0 995.7
00 13.08 СЗ 3 50 км н/о +9.6 +8.0 90 +7 +7 1011.9 995.6
01 13.08 СЗ 3 40 км н/о +9.0 +7.5 90 +6 +6 1011.8 995.5
02 13.08 СЗ 3 40 км н/о +8.1 +7.0 93 +5 +5 1011.9 995.6
03 13.08 СЗ 3 50 км н/о +8.4 +6.4 87 +6 +6 1011.8 995.5
04 13.08 СЗ 3 50 км н/о +7.6 +6.2 91 +5 +5 1011.7 995.4
05 13.08 СЗ 3 50 км н/о +7.0 +5.9 93 +4 +4 1011.8 995.4
06 13.08 СЗ 4 27 км н/о +8.0 +6.2 88 +5 +5 1011.8 995.4 +6.9
07 13.08 СЗ 3 50 км н/о +9.4 +6.9 84 +7 +7 1011.9 995.7
08 13.08 З 2 35 км н/о +11.6 +8.8 83 +11 +11 1012.2 996.1
09 13.08 ЮЗ 2 45 км н/о +13.6 +9.0 74 +13 +13 1012.0 996.0
10 13.08 Ю 3 35 км н/о +13.8 +7.6 66 +13 +13 1012.0 996.0
11 13.08 Ю 5 30 км н/о +15.0 +10.0 72 +14 +14 1011.7 995.8
12 13.08 ЮВ 4 35 км н/о +13.5 +8.6 72 +12 +12 1011.8 995.8
13 13.08 В 5 35 км слаб. ливневой дождь н/о +13.6 +11.2 85 +12 +12 1011.8 995.8
14 13.08 СЗ 4 17 км слаб. ливневой дождь н/о +13.5 +10.7 83 +12 +12 1011.7 995.7
15 13.08 ЮВ 3 35 км в посл. час дождь н/о +14.5 +8.3 66 +14 +14 1011.5 995.5
16 13.08 СВ 4 24 км в посл. час дождь н/о +14.1 +10.5 79 +13 +13 1011.7 995.7
17 13.08 С 2 45 км слаб. ливневой дождь н/о +11.8 +8.3 79 +11 +11 1011.8 995.7
18 13.08 Ю 3 18 км в посл. час дождь н/о +11.6 +9.5 87 +10 +10 1012.0 995.9 +15.7 4
19 13.08 Ю 2 35 км в посл. час дождь н/о +11.4 +9.6 89 +10 +10 1012.0 995.9
20 13.08 З 2 30 км н/о +10.9 +8.9 87 +10 +10 1012.2 996.0
21 13.08 СЗ 3 35 км н/о +10.2 +8.7 90 +8 +8 1012.4 996.2
22 13.08 З 2 50 км н/о +10.2 +8.7 90 +9 +9 1012.3 996.0
23 13.08 С 2 45 км н/о +10.1 +8.8 92 +9 +9 1012.0 995.8
00 14.08 СЗ 3 35 км н/о +8.1 +7.5 96 +5 +5 1012.2 995.9 0.0
01 14.08 СЗ 4 45 км н/о +8.2 +6.7 90 +5 +5 1012.1 995.7
02 14.08 СЗ 3 40 км н/о +7.6 +6.0 90 +5 +5 1012.0 995.7
03 14.08 СЗ 3 40 км н/о +7.4 +5.5 88 +5 +5 1011.7 995.3
04 14.08 СЗ 2 35 км н/о +7.4 +5.5 88 +5 +5 1011.3 995.0
05 14.08 СЗ 3 45 км н/о +7.3 +5.5 88 +5 +5 1010.9 994.6
06 14.08 СЗ 2 45 км н/о +7.6 +5.5 87 +5 +5 1010.7 994.4 +6.8 0.0
07 14.08 ЮЗ 2 40 км н/о +9.5 +6.8 83 +8 +8 1010.4 994.1
08 14.08 ЮЗ 3 40 км н/о +10.0 +7.7 86 +8 +8 1010.2 994.1
09 14.08 Ю 3 30 км н/о +11.4 +8.8 84 +10 +10 1009.8 993.7
10 14.08 Ю 3 35 км н/о +11.8 +9.8 88 +10 +10 1009.4 993.4
11 14.08 Ю 3 22 км в посл. час дождь н/о +13.4 +11.1 86 +12 +12 1008.8 992.8
12 14.08 Ю 4 24 км слаб. ливневой дождь н/о +13.9 +11.6 86 +13 +13 1008.5 992.5 0.0
13 14.08 ЮВ 4 35 км в посл. час дождь н/о +14.7 +12.0 84 +14 +14 1008.0 992.1
14 14.08 ЮВ 4 30 км н/о +15.0 +12.6 86 +14 +14 1007.1 991.3
15 14.08 ЮВ 6 19 км н/о +14.6 +12.8 89 +13 +13 1006.3 990.4
16 14.08 ЮВ 7 22 км н/о +13.6 +12.2 91 +11 +11 1005.7 989.8
17 14.08 ЮВ 6 16 км в посл. час дождь н/о +13.0 +12.1 94 +11 +11 1004.9 989.0
18 14.08 ЮВ 6 14 км в посл. час дождь н/о +13.0 +12.6 97 +10 +10 1004.2 988.2 +15.7 0.0
19 14.08 ЮВ 6 10 км н/о +13.0 +12.6 97 +11 +11 1003.5 987.6
20 14.08 ЮВ 6 7000 м дымка н/о +13.0 +12.7 98 +11 +11 1003.1 987.2
21 14.08 ЮВ 6 1700 м дымка н/о +13.0 +13.0 100 +11 +11 1002.4 986.5
22 14.08 ЮВ 6 200 м туман н/о +13.1 +13.1 100 +11 +11 1001.6 985.8
23 14.08 ЮВ 6 100 м туман н/о +13.3 +13.3 100 +11 +11 1000.9 985.0
00 15.08 ЮВ 5 <100 м ливневой дождь н/о +13.4 +13.4 100 +11 +11 1000.3 984.5 0.0
01 15.08 ЮВ 6 <100 м слаб. дождь н/о +13.4 +13.4 100 +11 +11 999.6 983.8
02 15.08 Ю 4 <100 м туман н/о +13.3 +13.3 100 +11 +11 999.0 983.1
03 15.08 ЮЗ 4 <100 м туман н/о +13.5 +13.5 100 +12 +12 998.5 982.7
04 15.08 З 3 2900 м в посл. час туман н/о +13.1 +13.1 100 +12 +12 998.3 982.5
05 15.08 З 4 3400 м дымка н/о +12.4 +12.4 100 +10 +10 998.5 982.6
06 15.08 З 4 200 м туман н/о +12.3 +12.3 100 +10 +10 998.9 983.0 +12.3 4
07 15.08 З 4 12 км в посл. час туман н/о +13.5 +13.5 100 +12 +12 999.5 983.7
08 15.08 З 4 40 км н/о +14.7 +14.7 100 +13 +13 1000.2 984.4
09 15.08 СЗ 5 35 км н/о +16.5 +14.1 86 +16 +16 1000.8 985.1
10 15.08 СЗ 8
{13}
27 км н/о +16.5 +12.7 78 +15 +15 1001.5 985.8
11 15.08 СЗ 11
{16}
40 км н/о +14.7 +11.0 78 +12 +12 1003.1 987.3
12 15.08 СЗ 8
{18}
35 км н/о +15.5 +10.6 73 +14 +14 1004.3 988.5
13 15.08 СЗ 9
{15}
35 км н/о +17.5 +9.8 61 +16 +16 1005.4 989.7
14 15.08 СЗ 8
{14}
35 км н/о +17.1 +7.7 54 +16 +16 1006.4 990.7
15 15.08 СЗ 7
{13}
40 км н/о +17.4 +7.8 53 +16 +16 1007.0 991.3
16 15.08 СЗ 6 40 км н/о +17.1 +6.4 49 +16 +16 1007.4 991.6
17 15.08 СЗ 4 30 км н/о +16.3 +7.0 54 +16 +16 1008.1 992.3
18 15.08 З 3 35 км н/о +16.9 +6.5 50 +17 +17 1008.5 992.7 +18.1
19 15.08 З 6 50 км н/о +15.0 +7.7 62 +14 +14 1009.3 993.4
20 15.08 З 5 45 км н/о +13.1 +6.7 65 +11 +11 1009.5 993.5
21 15.08 З 5 50 км н/о +12.2 +6.6 69 +10 +10 1009.6 993.5
22 15.08 ЮЗ 6 40 км н/о +12.5 +7.9 74 +10 +10 1009.6 993.5
23 15.08 З 6 29 км н/о +12.4 +8.5 77 +10 +10 1009.1 993.1
00 16.08 ЮЗ 8 30 км н/о +12.5 +9.4 81 +9 +9 1008.8 992.7
01 16.08 ЮЗ 8 35 км н/о +12.6 +10.5 87 +9 +9 1007.9 991.9
02 16.08 ЮЗ 7 7000 м слаб. морось с дождем н/о +12.1 +10.6 91 +9 +9 1007.5 991.5
03 16.08 ЮЗ 6 25 км в посл. час дождь н/о +12.1 +11.4 95 +9 +9 1006.6 990.6
04 16.08 Ю 4 19 км н/о +12.1 +11.7 97 +10 +10 1005.6 989.6
05 16.08 Ю 6 12 км в посл. час дождь н/о +12.5 +12.3 99 +10 +10 1004.7 988.7
06 16.08 Ю 7 5000 м слаб. ливневой дождь н/о +12.7 +12.7 100 +10 +10 1003.9 988.0 +11.9 0.0
07 16.08 Ю 11
{13}
8000 м слаб. дождь н/о +12.9 +12.8 99 +9 +9 1003.0 987.1
08 16.08 Ю 11
{14}
6000 м дождь н/о +12.8 +12.7 99 +9 +9 1002.2 986.3
09 16.08 Ю 14
{17}
5000 м слаб. дождь н/о +12.6 +12.6 100 +8 +8 1000.7 984.8
10 16.08 Ю 13
{19}
5000 м слаб. дождь н/о +12.9 +12.8 99 +9 +9 999.9 984.0
11 16.08 Ю 14
{19}
6000 м в посл. час дождь н/о +13.0 +12.9 99 +9 +9 998.9 983.1
12 16.08 Ю 13
{17}
7000 м дымка н/о +13.0 +12.8 99 +9 +9 998.0 982.2 2
13 16.08 Ю 13
{17}
7000 м дымка н/о +13.2 +13.0 99 +9 +9 997.1 981.3
14 16.08 Ю 13
{17}
7000 м дымка н/о +13.4 +13.1 98 +10 +10 996.4 980.6
15 16.08 Ю 10
{16}
7000 м дымка н/о +13.8 +13.4 97 +11 +11 995.6 979.8
16 16.08 Ю 9
{13}
9000 м дым н/о +14.7 +13.3 91 +12 +12 994.8 979.1
17 16.08 Ю 7 11 км дымка н/о +14.2 +13.4 95 +12 +12 994.0 978.3
18 16.08 ЮЗ 7
{13}
9000 м дымка н/о +14.2 +13.8 97 +12 +12 993.9 978.2 +15.6 2
19 16.08 Ю 7
{13}
11 км в посл. час дождь н/о +15.0 +14.1 94 +13 +13 993.2 977.6
20 16.08 Ю 6 11 км н/о +14.4 +13.9 97 +12 +12 992.9 977.2
21 16.08 Ю 4 6000 м дымка н/о +14.2 +13.6 96 +13 +13 993.0 977.3
22 16.08 Ю 6 8000 м дымка н/о +13.6 +13.3 98 +11 +11 992.6 976.9
23 16.08 Ю 7 8000 м в посл. час дождь н/о +14.0 +13.9 99 +12 +12 992.0 976.3
00 17.08 ЮЗ 6 300 м туман н/о +13.8 +13.8 100 +12 +12 991.2 975.6 0.2
01 17.08 ЮЗ 5 13 км в посл. час туман н/о +13.6 +13.6 100 +12 +12 990.9 975.2
02 17.08 З 7 21 км н/о +13.5 +13.5 100 +11 +11 990.7 975.0
03 17.08 ЮЗ 7 20 км н/о +13.4 +13.1 98 +11 +11 990.6 974.9
04 17.08 ЮЗ 8 12 км н/о +12.9 +12.7 99 +10 +10 990.3 974.6
05 17.08 З 7 24 км н/о +12.0 +11.5 97 +9 +9 990.4 974.7
06 17.08 ЮЗ 7 18 км н/о +12.5 +12.2 98 +9 +9 990.6 974.8 +11.8 0.2
07 17.08 З 8 35 км н/о +12.8 +11.7 93 +10 +10 990.9 975.1
08 17.08 З 11
{15}
45 км н/о +13.4 +9.9 79 +10 +10 991.3 975.6
09 17.08 ЮЗ 11-16
{16}
19 км н/о +14.3 +9.4 72 +11 +11 991.9 976.2
10 17.08 ЮЗ 11
{16}
16 км н/о +15.8 +9.9 68 +14 +14 992.5 976.9
11 17.08 ЮЗ 11
{15}
19 км н/о +16.5 +8.4 59 +15 +15 992.7 977.2
12 17.08 З 7
{16}
22 км в посл. час дождь н/о +15.1 +11.6 80 +13 +13 993.4 977.7 0.2
13 17.08 ЮЗ 10
{13}
35 км в посл. час дождь н/о +17.0 +9.0 59 +15 +15 993.1 977.6
14 17.08 З 8
{19}
45 км н/о +16.1 +8.1 59 +15 +15 993.9 978.3
15 17.08 З 8
{14}
28 км н/о +17.9 +8.1 53 +17 +17 993.8 978.3
16 17.08 ЮЗ 10
{16}
35 км н/о +17.2 +8.4 56 +16 +16 993.8 978.3
17 17.08 ЮЗ 9
{17}
35 км н/о +16.0 +8.4 61 +14 +14 994.0 978.4
18 17.08 ЮЗ 9
{13}
18 км н/о +13.8 +10.2 79 +11 +11 994.1 978.4 +18.1 0.6
19 17.08 ЮЗ 12
{16}
22 км н/о +13.3 +10.7 84 +10 +10 994.0 978.3
20 17.08 ЮЗ 9
{16}
17 км н/о +11.8 +9.9 88 +8 +8 994.4 978.6
21 17.08 ЮЗ 9
{13}
18 км в посл. час дождь н/о +11.4 +9.8 90 +8 +8 994.4 978.5
22 17.08 ЮЗ 8 29 км н/о +11.9 +10.4 91 +8 +8 994.3 978.5
23 17.08 ЮЗ 7 24 км н/о +12.2 +11.3 94 +9 +9 994.0 978.2
00 18.08 Ю 11
{13}
14 км н/о +12.8 +10.7 87 +9 +9 993.7 977.9 0.0
01 18.08 ЮЗ 11
{15}
19 км н/о +12.7 +10.3 85 +9 +9 993.4 977.6
02 18.08 ЮЗ 12
{14}
19 км н/о +12.4 +10.0 85 +9 +9 993.0 977.3
03 18.08 ЮЗ 11
{14}
19 км н/о +12.0 +9.8 86 +8 +8 992.5 976.7
04 18.08 Ю 12
{15}
15 км н/о +12.4 +9.9 85 +8 +8 992.1 976.3
05 18.08 Ю 11
{14}
15 км н/о +12.4 +10.0 85 +9 +9 991.8 976.0
06 18.08 ЮЗ 9
{14}
15 км н/о +12.4 +10.3 87 +9 +9 991.8 976.0 +11.1 0.0
07 18.08 ЮЗ 10
{14}
15 км н/о +12.8 +10.6 86 +9 +9 991.4 975.6
08 18.08 ЮЗ 11
{16}
14 км н/о +13.2 +10.6 84 +10 +10 991.1 975.4
09 18.08 ЮЗ 11
{15}
15 км н/о +13.3 +11.0 86 +10 +10 991.2 975.5
10 18.08 ЮЗ 11
{15}
22 км н/о +13.7 +11.3 85 +11 +11 990.9 975.3
11 18.08 ЮЗ 10
{16}
20 км н/о +15.9 +12.4 80 +14 +14 990.6 975.0
12 18.08 ЮЗ 13-18
{20}
24 км н/о +16.0 +10.6 70 +14 +14 990.4 974.8
13 18.08 ЮЗ 13-18
{20}
15 км слаб. ливневой дождь н/о +14.8 +11.1 78 +12 +12 990.8 975.2
14 18.08 ЮЗ 12
{17}
19 км в посл. час дождь н/о +14.0 +12.8 92 +11 +11 991.0 975.4
15 18.08 ЮЗ 13
{17}
29 км н/о +16.5 +12.2 76 +14 +14 991.1 975.6
16 18.08 ЮЗ 12-19
{19}
50 км н/о +15.4 +11.2 76 +13 +13 991.5 975.9
17 18.08 З 10
{15}
28 км слаб. ливневой дождь н/о +14.7 +11.8 83 +12 +12 992.0 976.3
18 18.08 ЮЗ 10
{14}
35 км в посл. час дождь н/о +14.8 +11.9 83 +12 +12 992.6 977.0 +17.5 0.6
19 18.08 З 10
{14}
50 км н/о +14.4 +11.3 82 +12 +12 993.4 977.7
20 18.08 З 10
{13}
50 км н/о +13.0 +10.9 87 +10 +10 994.2 978.4
21 18.08 ЮЗ 8
{13}
35 км н/о +12.5 +10.2 86 +9 +9 995.7 979.9
22 18.08 З 7 30 км н/о +11.9 +10.0 88 +9 +9 996.4 980.5
23 18.08 З 7 30 км н/о +11.2 +9.5 89 +8 +8 996.9 981.0
00 19.08 З 8 25 км н/о +11.3 +9.0 86 +8 +8 997.3 981.4
01 19.08 З 7 24 км н/о +11.1 +8.3 83 +8 +8 997.8 981.9
03 19.08 З 6 30 км н/о +11.1 +7.6 79 +8 +8 998.7 982.8
04 19.08 З 4 27 км н/о +11.2 +7.3 77 +9 +9 999.0 983.1
05 19.08 ЮЗ 5 30 км н/о +10.3 +7.6 83 +7 +7 999.6 983.6
06 19.08 ЮЗ 6 35 км н/о +11.4 +8.4 82 +8 +8 999.9 983.9 +10.2
07 19.08 З 4 30 км н/о +12.2 +8.7 79 +10 +10 1000.6 984.7

 

Местоположение метеостанции Инвербери (Великобритания): широта 56.85 долгота -2.27 высота над уровнем моря 134 м.

В архиве по умолчанию представлена погода в Инвербери за последнюю неделю. Архивные данные за месяц целиком и за предыдущие месяцы, начиная с января 2011 года, Вы можете получить, выбрав интересующий диапазон дат из раскрывающегося списка и нажав кнопку "Ввод!".


*Определитесь, кто Вы:
робот инопланетянин человек

Внимание! Время в таблицах - всемирное. Для получения местного времени необходимо прибавить поправку, которая равна 0 ч.

Смотрите также архив погоды в соседних городах и на ближайших метеорологических станциях:

Погода в Абердине (Великобритания) (39 км)
Погода в Абойне (Великобритания) (43 км)
Погода в Леучарсе (Великобритания) (62 км)
Погода на Кэрнуэлле (Великобритания) (70 км)
Погода на Кайрнгорме (Великобритания) (88 км)
Погода на Авморе (Великобритания) (102 км)
Погода в Страталлане (Великобритания) (107 км)
Погода в Лоссимуте (Великобритания) (116 км)
Погода в Кинлоссе (Великобритания) (118 км)
Погода в Эдинбурге (Великобритания) (122 км)

Пояснения к столбцам:

Ветер - указаны скорость ветра в м/с - средняя за 10 мин, порывы в срок и между сроками (в фигурных скобках) и направление, откуда дует ветер: С - северный, СВ - северо-восточный, В - восточный, ЮВ - юго-восточный, Ю - южный, ЮЗ - юго-западный, З - западный, СЗ - северо-западный.
Видимость - горизонтальная дальность видимости в метрах или километрах. При видимости от 1 до 10 км при отсутствии осадков обычно наблюдается дымка, при ухудшении видимости до 1 км и менее - туман. В сухую погоду видимость может ухудшаться дымом, пылью или мглою.
Явления - указаны атмосферные явления, наблюдавшиеся в срок или в последний час перед сроком; фигурными скобками обозначены явления, наблюдавшиеся между сроками (за 1-3 часа до срока); квадратными скобками обозначены град или гололедные отложения с указанием их диаметра в мм.
Облачность - указаны через наклонную черту общая и нижняя облачность в баллах и высота нижней границы облаков в метрах; квадратными скобками обозначены формы облаков: Ci - перистые, Cs - перисто-слоистые, Cc - перисто-кучевые, Ac - высококучевые, As - высокослоистые, Sc - слоисто-кучевые, Ns - слоисто-дождевые, Cu - кучевые, Cb - кучево-дождевые. Подробнее классификацию облаков см. в Атласе облаков (PDF).
T - Температура воздуха - температура, измеренная на высоте 2 м над землей.
Td - Температура точки росы - температура, при понижении до которой содержащийся в воздухе водяной пар достигнет насыщения.
f - Относительная влажность воздуха - влажноcть воздуха, измеренная на высоте 2 м над землей.
Te - Эффективная температура - температура, которую ощущает одетый по сезону человек в тени. Характеристика душности погоды. При расчете учитывается влияние влажности воздуха и скорости ветра на теплоощущения человека.
Tes - Эффективная температура на солнце - температура, которую ощущает человек, с поправкой на солнечный нагрев. Характеристика знойности погоды. Зависит от высоты солнца над горизонтом, облачности и скорости ветра. Ночью, в пасмурную погоду, а также при ветре 12 м/с и более поправка равна нулю.
P - Атмосферное давление - приведенное к уровню моря атмосферное давление.
Po - Атмосферное давление - измеренное на уровне метеостанции атмосферное давление.
Tmin - Минимальная температура - минимум температуры воздуха на высоте 2 м над землей.
Tmax - Максимальная температура - максимум температуры воздуха на высоте 2 м над землей.
R - Количество осадков - Количество выпавших осадков за период времени, мм. При наведении курсора мыши на число - период времени, за который выпало указанное количество осадков.
R24 - Количество осадков - Количество выпавших осадков за 24 часа, мм.
S - Снежный покров - Высота снежного покрова, см. При наведении курсора мыши на число - состояние снежного покрова и степень покрытия местности в баллах.